Location: *
(49.8292°S, 175.6452°W)
Time: 20:52:14
(UTC+00:00)

ATLAS 3B R/B - Pass Details

Date: 15 October 2024
Orbit: 938 x 1255 km, 63.8° (Epoch: 06 November)

Event Time Altitude Azimuth Distance (km) Brightness Sun altitude
Rises 09:16:13 0° 223° (SW) 3,653 6.9 -24.7°
Reaches altitude 10° 09:18:47 10° 222° (SW) 2,692 5.9 -25.0°
Maximum altitude 09:25:03 86° 132° (SE) 962 2.4 -25.5°
Enters shadow 09:26:11 62° 50° (NE) 1,066 2.3 -25.6°
